Lawrence, MA

12:11 AM EST on November 19, 2019 (GMT -0500)
Lawrence Municipal

Weather History for KLWM - August, 2019

Change the Weather History Date:

Sunday, August 18, 2019

  Actual Average Record
Temperature  
Mean Temperature 75 °F -  
Max Temperature 86 °F 82 °F 96 °F (1935)
Min Temperature 66 °F 60 °F 47 °F (1981)
Cooling Degree Days 10    
Growing Degree Days 25 (Base 50)    
Moisture  
Dew Point 68 °F    
Average Humidity 86    
Maximum Humidity 97    
Minimum Humidity 59    
Precipitation  
Precipitation 0.09 in - - ()
Sea Level Pressure  
Sea Level Pressure 30.00 in    
Wind  
Wind Speed 3 mph (SSW)    
Max Wind Speed 10 mph    
Max Gust Speed -    
Visibility 10 miles    
Events Rain , Thunderstorm    
Averages and records for this station are not official NWS values.
T = Trace of Precipitation, MM = Missing Value Source: NWS Daily Summary

Daily Weather History Graph

Daily Weather History Graph

Search for Another Location

Airport or City:

Astronomy

Aug. 18, 2019 Rise Set
Actual Time 5:53 AM EDT 7:42 PM EDT
Civil Twilight 5:23 AM EDT 8:12 PM EDT
Nautical Twilight 4:46 AM EDT 8:48 PM EDT
Astronomical Twilight 4:06 AM EDT 9:28 PM EDT
Moon 9:31 PM EDT (8/18) 8:38 AM EDT (8/18)
Length of Visible Light 14h 48m
Length of Day
13h 48m
Waning Gibbous, 91% of the Moon is Illuminated
Aug 18
Waning Gibbous
Aug 23
Last Quarter
Aug 30
New
Sep 5
First Quarter
Sep 14
Full

Hourly Weather History & Observations

Time (EDT) Temp. Heat Index Dew Point Humidity Pressure Visibility Wind Dir Wind Speed Gust Speed Precip Events Conditions
12:04 AM 68.0 °F - 66.0 °F 93% 30.00 in 7.0 mi Variable 4.6 mph - 0.01 in Rain Light Rain
12:54 AM 68.0 °F - 66.0 °F 93% 30.02 in 10.0 mi SW 3.5 mph - 0.01 in   Overcast
1:54 AM 68.0 °F - 66.0 °F 93% 30.01 in 7.0 mi South 3.5 mph - 0.01 in Rain Light Rain
2:54 AM 66.9 °F - 66.0 °F 97% 30.01 in 10.0 mi Calm Calm - 0.07 in   Mostly Cloudy
3:29 AM 66.9 °F - 64.9 °F 93% 30.01 in 8.0 mi North 3.5 mph - N/A   Mostly Cloudy
3:54 AM 68.0 °F - 66.0 °F 93% 30.00 in 10.0 mi Calm Calm - N/A   Overcast
4:07 AM 68.0 °F - 66.0 °F 93% 30.00 in 9.0 mi Calm Calm - N/A   Overcast
4:54 AM 68.0 °F - 66.9 °F 96% 29.99 in 10.0 mi Calm Calm - N/A   Overcast
5:07 AM 68.0 °F - 66.9 °F 96% 30.00 in 10.0 mi Calm Calm - N/A   Overcast
5:32 AM 69.1 °F - 66.9 °F 93% 30.01 in 9.0 mi Calm Calm - N/A   Overcast
5:40 AM 68.0 °F - 66.9 °F 96% 30.02 in 9.0 mi Calm Calm - N/A   Overcast
5:54 AM 69.1 °F - 66.9 °F 93% 30.01 in 10.0 mi Calm Calm - N/A   Overcast
6:54 AM 69.1 °F - 66.9 °F 93% 30.02 in 9.0 mi NNE 4.6 mph - N/A   Overcast
7:54 AM 70.0 °F - 68.0 °F 93% 30.04 in 9.0 mi Calm Calm - N/A   Overcast
8:54 AM 70.0 °F - 68.0 °F 93% 30.05 in 10.0 mi WNW 4.6 mph - N/A   Overcast
9:54 AM 71.1 °F - 68.0 °F 90% 30.05 in 10.0 mi Variable 3.5 mph - N/A   Overcast
10:32 AM 73.9 °F - 68.0 °F 82% 30.04 in 10.0 mi North 4.6 mph - N/A   Scattered Clouds
10:54 AM 75.0 °F - 69.1 °F 82% 30.04 in 10.0 mi Calm Calm - N/A   Clear
11:54 AM 78.1 °F - 69.1 °F 74% 30.03 in 10.0 mi SW 3.5 mph - N/A   Partly Cloudy
12:54 PM 81.0 °F 83.8 °F 68.0 °F 65% 30.01 in 10.0 mi Variable 3.5 mph - N/A   Clear
1:54 PM 82.9 °F 85.8 °F 68.0 °F 60% 30.01 in 10.0 mi SW 5.8 mph - N/A   Clear
2:54 PM 84.9 °F 89.4 °F 70.0 °F 61% 30.00 in 10.0 mi SW 8.1 mph - N/A   Scattered Clouds
3:54 PM 84.9 °F 88.8 °F 69.1 °F 59% 29.99 in 10.0 mi Calm Calm - N/A   Partly Cloudy
4:54 PM 79.0 °F - 70.0 °F 74% 29.99 in 10.0 mi ESE 10.4 mph - N/A   Overcast
5:54 PM 79.0 °F - 69.1 °F 72% 29.99 in 10.0 mi SE 6.9 mph - N/A   Clear
6:54 PM 77.0 °F - 69.1 °F 76% 29.98 in 10.0 mi Variable 4.6 mph - N/A   Clear
7:54 PM 75.0 °F - 68.0 °F 79% 29.99 in 10.0 mi Calm Calm - N/A   Overcast
8:54 PM 73.0 °F - 69.1 °F 87% 29.99 in 10.0 mi Variable 3.5 mph - N/A   Partly Cloudy
9:54 PM 73.0 °F - 69.1 °F 87% 29.99 in 10.0 mi South 4.6 mph - N/A   Mostly Cloudy
10:32 PM 72.0 °F - 69.1 °F 91% 29.99 in 10.0 mi SSE 3.5 mph - N/A Thunderstorm Overcast
10:43 PM 72.0 °F - 69.1 °F 91% 30.00 in 10.0 mi Calm Calm - 0.00 in Rain , Thunderstorm Light Thunderstorms and Rain
10:54 PM 73.0 °F - 70.0 °F 90% 29.99 in 10.0 mi Calm Calm - 0.00 in Thunderstorm Thunderstorm
11:05 PM 72.0 °F - 70.0 °F 93% 30.00 in 10.0 mi North 6.9 mph - N/A Thunderstorm Thunderstorm
11:08 PM 72.0 °F - 70.0 °F 93% 29.99 in 10.0 mi North 4.6 mph - N/A Thunderstorm Thunderstorm
11:20 PM 73.9 °F - 71.1 °F 91% 29.99 in 10.0 mi Calm Calm - N/A Thunderstorm Thunderstorm
11:31 PM 75.0 °F - 71.1 °F 87% 29.99 in 10.0 mi Calm Calm - N/A Thunderstorm Thunderstorm
11:34 PM 75.0 °F - 71.1 °F 87% 29.98 in 10.0 mi Calm Calm - N/A Thunderstorm Overcast
11:45 PM 75.0 °F - 71.1 °F 87% 29.97 in 10.0 mi Calm Calm - N/A   Overcast
11:54 PM 75.0 °F - 71.1 °F 87% 29.96 in 10.0 mi SE 3.5 mph - N/A   Mostly Cloudy